Waukesha, WI

10:52 PM CDT on April 22, 2018 (GMT -0500)
Waukesha County

Weather History for KUES - January, 2012

Change the Weather History Date:

Tuesday, January 10, 2012

  Actual Average Record
Temperature  
Mean Temperature 34 °F -  
Max Temperature 46 °F 24 °F 53 °F (1975)
Min Temperature 23 °F 8 °F -25 °F (1982)
Degree Days  
Heating Degree Days 30    
Moisture  
Dew Point 28 °F    
Average Humidity 79    
Maximum Humidity 100    
Minimum Humidity 53    
Precipitation  
Precipitation 0.00 in - - ()
Sea Level Pressure  
Sea Level Pressure 29.90 in    
Wind  
Wind Speed 7 mph (SW)    
Max Wind Speed 22 mph    
Max Gust Speed -    
Visibility 10 miles    
Events      
Averages and records for this station are not official NWS values.
T = Trace of Precipitation, MM = Missing Value Source: NWS Daily Summary

Daily Weather History Graph

Daily Weather History Graph

Search for Another Location

Airport or City:

Astronomy

Jan. 10, 2012 Rise Set
Actual Time 7:23 AM CST 4:37 PM CST
Civil Twilight 6:51 AM CST 5:09 PM CST
Nautical Twilight 6:16 AM CST 5:44 PM CST
Astronomical Twilight 5:42 AM CST 6:18 PM CST
Moon 6:32 PM CST (1/10) 7:58 AM CST (1/10)
Length of Visible Light 10h 17m
Length of Day
9h 13m
Full, 98% of the Moon is Illuminated
Jan 10
Full
Jan 16
Last Quarter
Jan 23
New
Jan 30
First Quarter
Feb 7
Full

Hourly Weather History & Observations

Time (CST) Temp. Windchill Dew Point Humidity Pressure Visibility Wind Dir Wind Speed Gust Speed Precip Events Conditions
12:15 AM 33.8 °F 24.8 °F 28.4 °F 81% 29.97 in 10.0 mi West 12.7 mph - N/A   Clear
12:35 AM 33.8 °F 25.8 °F 28.4 °F 81% 29.97 in 10.0 mi West 10.4 mph - N/A   Clear
12:55 AM 33.8 °F 27.0 °F 28.4 °F 81% 29.97 in 10.0 mi West 8.1 mph - N/A   Clear
1:15 AM 33.8 °F 27.0 °F 28.4 °F 81% 29.97 in 10.0 mi West 8.1 mph - N/A   Clear
1:35 AM 32.0 °F 24.8 °F 28.4 °F 87% 29.97 in 10.0 mi WNW 8.1 mph - N/A   Clear
1:55 AM 32.0 °F 25.6 °F 28.4 °F 87% 29.98 in 10.0 mi WNW 6.9 mph - N/A   Clear
2:15 AM 32.0 °F 25.6 °F 28.4 °F 87% 29.98 in 10.0 mi WNW 6.9 mph - N/A   Clear
2:35 AM 32.0 °F 26.4 °F 26.6 °F 80% 29.98 in 10.0 mi WNW 5.8 mph - N/A   Clear
2:55 AM 30.2 °F 26.7 °F 26.6 °F 86% 29.98 in 10.0 mi West 3.5 mph - N/A   Clear
3:15 AM 32.0 °F 27.5 °F 28.4 °F 87% 29.98 in 10.0 mi WNW 4.6 mph - N/A   Clear
3:35 AM 30.2 °F 25.4 °F 26.6 °F 86% 29.98 in 10.0 mi WNW 4.6 mph - N/A   Clear
3:55 AM 28.4 °F 24.6 °F 26.6 °F 93% 29.98 in 10.0 mi WNW 3.5 mph - N/A   Clear
4:15 AM 28.4 °F - 26.6 °F 93% 29.99 in 10.0 mi Calm Calm - N/A   Clear
4:35 AM 28.4 °F 24.6 °F 26.6 °F 93% 29.99 in 10.0 mi West 3.5 mph - N/A   Clear
5:45 AM 24.8 °F - 23.0 °F 93% 30.00 in 10.0 mi Calm Calm - N/A   Clear
6:45 AM 24.8 °F - 24.8 °F 100% 30.01 in 10.0 mi Calm Calm - N/A   Clear
7:45 AM 23.0 °F - 23.0 °F 100% 30.00 in 10.0 mi Calm Calm - N/A   Clear
8:45 AM 30.2 °F - 28.4 °F 93% 30.00 in 10.0 mi Calm Calm - N/A   Clear
9:45 AM 37.4 °F 30.8 °F 28.4 °F 70% 29.98 in 10.0 mi SSE 9.2 mph - N/A   Clear
10:45 AM 41.0 °F 35.2 °F 28.4 °F 61% 29.97 in 10.0 mi SSE 9.2 mph - N/A   Clear
11:45 AM 44.6 °F 39.2 °F 30.2 °F 57% 29.95 in 10.0 mi South 10.4 mph - N/A   Clear
12:45 PM 44.6 °F 36.1 °F 28.4 °F 53% 29.92 in 10.0 mi SSW 21.9 mph - N/A   Clear
1:45 PM 46.4 °F 41.9 °F 30.2 °F 53% 29.87 in 10.0 mi SSW 9.2 mph - N/A   Clear
2:45 PM 46.4 °F 41.9 °F 30.2 °F 53% 29.85 in 10.0 mi South 9.2 mph - N/A   Clear
3:45 PM 44.6 °F 40.2 °F 30.2 °F 57% 29.85 in 10.0 mi SSW 8.1 mph - N/A   Clear
4:45 PM 42.8 °F 36.6 °F 30.2 °F 61% 29.84 in 10.0 mi South 11.5 mph - N/A   Clear
5:45 PM 41.0 °F 34.3 °F 30.2 °F 65% 29.84 in 10.0 mi South 11.5 mph - N/A   Clear
7:45 PM 37.4 °F 32.1 °F 28.4 °F 70% 29.82 in 10.0 mi SSW 6.9 mph - N/A   Clear
8:15 PM 35.6 °F 30.7 °F 30.2 °F 81% 29.81 in 10.0 mi SSW 5.8 mph - N/A   Clear
8:35 PM 35.6 °F 31.7 °F 28.4 °F 75% 29.81 in 10.0 mi SSW 4.6 mph - N/A   Clear
8:55 PM 35.6 °F 32.8 °F 28.4 °F 75% 29.80 in 10.0 mi SSW 3.5 mph - N/A   Clear
9:15 PM 33.8 °F - 28.4 °F 81% 29.79 in 10.0 mi Calm Calm - N/A   Clear
9:35 PM 32.0 °F - 28.4 °F 87% 29.78 in 10.0 mi Calm Calm - N/A   Clear
9:55 PM 33.8 °F 30.8 °F 28.4 °F 81% 29.78 in 10.0 mi SSW 3.5 mph - N/A   Clear
10:15 PM 33.8 °F 30.8 °F 28.4 °F 81% 29.77 in 10.0 mi SW 3.5 mph - N/A   Clear
10:35 PM 33.8 °F 30.8 °F 30.2 °F 87% 29.76 in 10.0 mi SW 3.5 mph - N/A   Clear
10:55 PM 32.0 °F 28.7 °F 28.4 °F 87% 29.76 in 10.0 mi SSW 3.5 mph - N/A   Clear
11:15 PM 33.8 °F 29.6 °F 30.2 °F 87% 29.75 in 10.0 mi SSW 4.6 mph - N/A   Clear
11:35 PM 33.8 °F 30.8 °F 28.4 °F 81% 29.75 in 10.0 mi South 3.5 mph - N/A   Clear
11:55 PM 32.0 °F 28.7 °F 28.4 °F 87% 29.75 in 10.0 mi SSW 3.5 mph - N/A   Clear